EN

Hourly Weather Amtacker

Today, 1 December, Tuesday

Time Temperature Precipitation Wind Pressure Humidity
00:00 -1°C° 0 mm 1 mps 726 mmHg 78%
01:00 -1°C° 0 mm 1 mps 726 mmHg 76%
02:00 0°C° 0.2 mm 1 mps 725 mmHg 78%
03:00 0°C° 0.2 mm 1 mps 724 mmHg 80%
04:00 0°C° 0.2 mm 1 mps 724 mmHg 82%
05:00 -1°C° 1 mm 2 mps 723 mmHg 86%
06:00 -1°C° 1 mm 2 mps 723 mmHg 90%
07:00 -1°C° 1 mm 2 mps 723 mmHg 94%
08:00 +1°C° 1.2 mm 2 mps 722 mmHg 95%
09:00 +1°C° 1.2 mm 2 mps 722 mmHg 95%
10:00 +2°C° 1.2 mm 2 mps 722 mmHg 96%
11:00 +2°C° 0.3 mm 2 mps 722 mmHg 96%
12:00 +3°C° 0.3 mm 1 mps 722 mmHg 96%
13:00 +4°C° 0.3 mm 1 mps 722 mmHg 96%
14:00 +3°C° 0 mm 1 mps 722 mmHg 96%
15:00 +3°C° 0 mm 1 mps 722 mmHg 97%
16:00 +3°C° 0 mm 1 mps 722 mmHg 98%
17:00 +2°C° 0 mm 0 mps 722 mmHg 98%
18:00 +1°C° 0 mm 0 mps 722 mmHg 98%
19:00 +1°C° 0 mm 0 mps 722 mmHg 97%
20:00 +1°C° 0 mm 0 mps 723 mmHg 98%
21:00 0°C° 0 mm 0 mps 723 mmHg 98%
22:00 0°C° 0 mm 0 mps 723 mmHg 98%
23:00 0°C° 0 mm 0 mps 723 mmHg 98%

Tomorrow, 2 December, Wednesday

Time Temperature Precipitation Wind Pressure Humidity
00:00 +1°C° 0 mm 0 mps 723 mmHg 98%
01:00 +1°C° 0 mm 0 mps 723 mmHg 98%
02:00 +2°C° 0.1 mm 1 mps 723 mmHg 98%
03:00 +2°C° 0.1 mm 1 mps 722 mmHg 98%
04:00 +2°C° 0.1 mm 1 mps 722 mmHg 98%
05:00 +1°C° 0 mm 1 mps 722 mmHg 98%
06:00 +1°C° 0 mm 1 mps 722 mmHg 97%
07:00 +1°C° 0 mm 1 mps 722 mmHg 97%
08:00 +1°C° 0.1 mm 1 mps 722 mmHg 96%
09:00 +2°C° 0.1 mm 1 mps 721 mmHg 95%
10:00 +1°C° 0.1 mm 2 mps 721 mmHg 95%
11:00 +2°C° 0 mm 2 mps 721 mmHg 92%
12:00 +2°C° 0 mm 2 mps 721 mmHg 90%
13:00 +2°C° 0 mm 2 mps 720 mmHg 88%
14:00 +2°C° 0 mm 2 mps 720 mmHg 90%
15:00 +2°C° 0 mm 1 mps 720 mmHg 91%
16:00 +2°C° 0 mm 1 mps 720 mmHg 93%
17:00 +1°C° 0 mm 1 mps 720 mmHg 94%
18:00 0°C° 0 mm 0 mps 720 mmHg 95%
19:00 -1°C° 0 mm 0 mps 720 mmHg 95%
20:00 -1°C° 0 mm 0 mps 720 mmHg 95%
21:00 -1°C° 0 mm 0 mps 720 mmHg 96%
22:00 -2°C° 0 mm 0 mps 720 mmHg 96%
23:00 -2°C° 0 mm 0 mps 720 mmHg 96%

Day after tomorrow, 3 December, Thursday

Time Temperature Precipitation Wind Pressure Humidity
00:00 -2°C° 0 mm 0 mps 720 mmHg 96%
01:00 -1°C° 0 mm 1 mps 719 mmHg 96%
02:00 -1°C° 0 mm 1 mps 719 mmHg 96%
03:00 -1°C° 0 mm 1 mps 719 mmHg 96%
04:00 -1°C° 0 mm 1 mps 719 mmHg 96%
05:00 -1°C° 0 mm 1 mps 718 mmHg 96%
06:00 -1°C° 0 mm 1 mps 718 mmHg 96%
07:00 -1°C° 0 mm 1 mps 718 mmHg 96%
08:00 0°C° 0 mm 1 mps 717 mmHg 94%
09:00 0°C° 0 mm 1 mps 717 mmHg 92%
10:00 +1°C° 0 mm 1 mps 717 mmHg 90%
11:00 +1°C° 0 mm 1 mps 716 mmHg 88%
12:00 +1°C° 0 mm 2 mps 715 mmHg 85%
13:00 +1°C° 0 mm 2 mps 714 mmHg 83%
14:00 +1°C° 0 mm 2 mps 714 mmHg 86%
15:00 +1°C° 0 mm 1 mps 713 mmHg 88%
16:00 +1°C° 0 mm 1 mps 713 mmHg 91%
17:00 0°C° 0 mm 1 mps 713 mmHg 92%
18:00 -1°C° 0 mm 1 mps 712 mmHg 93%
19:00 -1°C° 0 mm 1 mps 712 mmHg 93%
20:00 -1°C° 0 mm 1 mps 711 mmHg 93%
21:00 -2°C° 0 mm 1 mps 710 mmHg 93%
22:00 -3°C° 0 mm 0 mps 710 mmHg 92%
23:00 -1°C° 0 mm 1 mps 709 mmHg 92%

4 December, Friday

Time Temperature Precipitation Wind Pressure Humidity
00:00 -1°C° 0 mm 1 mps 708 mmHg 91%
01:00 -1°C° 0 mm 1 mps 708 mmHg 91%
02:00 -1°C° 0 mm 1 mps 707 mmHg 91%
03:00 -1°C° 0 mm 1 mps 706 mmHg 90%
04:00 -1°C° 0 mm 1 mps 706 mmHg 90%
05:00 -2°C° 0 mm 0 mps 705 mmHg 90%
06:00 -2°C° 0 mm 0 mps 705 mmHg 91%
07:00 -2°C° 0 mm 0 mps 705 mmHg 91%
08:00 -1°C° 0 mm 0 mps 704 mmHg 89%
09:00 0°C° 0 mm 0 mps 704 mmHg 87%
10:00 0°C° 0 mm 0 mps 704 mmHg 85%
11:00 +1°C° 0 mm 0 mps 704 mmHg 83%
12:00 +3°C° 0 mm 1 mps 703 mmHg 82%
13:00 +4°C° 0 mm 1 mps 702 mmHg 81%
14:00 +3°C° 0 mm 1 mps 702 mmHg 85%
15:00 +3°C° 0 mm 1 mps 702 mmHg 88%
16:00 +2°C° 0 mm 1 mps 701 mmHg 92%
17:00 +2°C° 0 mm 1 mps 701 mmHg 92%
18:00 +1°C° 0 mm 1 mps 701 mmHg 92%
19:00 0°C° 0 mm 0 mps 701 mmHg 92%
20:00 0°C° 0 mm 0 mps 701 mmHg 92%
21:00 0°C° 0 mm 0 mps 702 mmHg 93%
22:00 -1°C° 0 mm 0 mps 702 mmHg 93%
23:00 -1°C° 0 mm 0 mps 702 mmHg 93%

5 December, Saturday

Time Temperature Precipitation Wind Pressure Humidity
00:00 -1°C° 0 mm 0 mps 702 mmHg 94%
01:00 -1°C° 0 mm 1 mps 702 mmHg 94%
02:00 0°C° 0.2 mm 1 mps 702 mmHg 95%
03:00 0°C° 0.2 mm 1 mps 702 mmHg 96%
04:00 0°C° 0.2 mm 1 mps 702 mmHg 97%
05:00 +1°C° 1 mm 1 mps 703 mmHg 97%
06:00 +1°C° 1 mm 1 mps 703 mmHg 98%
07:00 +1°C° 1 mm 1 mps 704 mmHg 98%
08:00 -1°C° 0.6 mm 2 mps 705 mmHg 98%
09:00 +1°C° 0.6 mm 2 mps 705 mmHg 97%
10:00 0°C° 0.6 mm 3 mps 706 mmHg 96%
11:00 0°C° 0.2 mm 3 mps 706 mmHg 96%
12:00 +2°C° 0.2 mm 2 mps 706 mmHg 96%
13:00 +2°C° 0.2 mm 2 mps 706 mmHg 95%
14:00 +2°C° 0 mm 1 mps 706 mmHg 96%
15:00 +2°C° 0 mm 1 mps 707 mmHg 96%
16:00 +1°C° 0 mm 0 mps 707 mmHg 97%
17:00 +1°C° 0.3 mm 1 mps 707 mmHg 97%
18:00 +1°C° 0.3 mm 1 mps 708 mmHg 97%
19:00 +1°C° 0.3 mm 1 mps 708 mmHg 98%
20:00 +1°C° 0.5 mm 1 mps 708 mmHg 98%
21:00 +1°C° 0.5 mm 1 mps 709 mmHg 98%
22:00 0°C° 0.5 mm 1 mps 709 mmHg 98%
23:00 0°C° 0.6 mm 1 mps 709 mmHg 98%

6 December, Sunday

Time Temperature Precipitation Wind Pressure Humidity
00:00 0°C° 0.6 mm 1 mps 709 mmHg 98%
01:00 0°C° 0.6 mm 1 mps 709 mmHg 98%
02:00 0°C° 0.4 mm 1 mps 709 mmHg 98%
03:00 0°C° 0.4 mm 1 mps 709 mmHg 98%
04:00 0°C° 0.4 mm 1 mps 709 mmHg 98%
05:00 0°C° 0.4 mm 1 mps 709 mmHg 98%
06:00 0°C° 0.4 mm 1 mps 710 mmHg 98%
07:00 0°C° 0.4 mm 1 mps 710 mmHg 98%
08:00 0°C° 0.2 mm 1 mps 710 mmHg 97%
09:00 0°C° 0.2 mm 1 mps 710 mmHg 96%
10:00 0°C° 0.2 mm 1 mps 711 mmHg 96%
11:00 +1°C° 0.1 mm 1 mps 711 mmHg 94%
12:00 +1°C° 0.1 mm 1 mps 711 mmHg 93%
13:00 -1°C° 0.1 mm 2 mps 711 mmHg 92%
14:00 +1°C° 0 mm 1 mps 711 mmHg 93%
15:00 +1°C° 0 mm 1 mps 712 mmHg 94%
16:00 0°C° 0 mm 1 mps 712 mmHg 95%
17:00 0°C° 0 mm 1 mps 712 mmHg 95%
18:00 -1°C° 0 mm 1 mps 713 mmHg 94%
19:00 -1°C° 0 mm 1 mps 714 mmHg 94%
20:00 -1°C° 0 mm 1 mps 714 mmHg 94%
21:00 -2°C° 0 mm 1 mps 715 mmHg 93%
22:00 -2°C° 0 mm 1 mps 715 mmHg 92%
23:00 -2°C° 0 mm 1 mps 715 mmHg 92%
Show more

We Need Your Consent

Meteoprog and our Service Providers may store and access personal data such as cookies, device identifiers or other similar technologies on your device and process such data to personalise content and ads, as well as provide social media features and to analyse the traffic.

  • Store and/or access information on your device

    Cookies, device identifiers or other information can be stored or accessed on your device for the purposes indicated above.

  • Personalised ads and content, ad and content measurement, audience insights, and products development

    Ads and content can be personalised based on a profile. More data can be added to better personalise ads and content. Ad and content performance can be measured. Insights about the audience who saw the ads and content can be derived. Such data can be used to develop or improve user’s experience, systems and software.

By clicking ‘I Agree’ you will allow the use of indicated cookies, device identifiers, web beacons or other similar technologies. Your settings can be changed in the browser on your device.

For certain purposes, legitimate interests may be relied on, rather than consent. You can read more about this in our Privacy and Cookie Policy.